Flag for Canada Weather past 2 weeks in Coquitlam, British Columbia, Canada

Now
82 °F

Pleasantly warm.


Feels Like: 80 °F
Forecast: 54 / 87 °F
Wind: 8 mph from West

Location: P. Meadows Coastal Station

Current Time: Jul 29, 2015 at 7:28:47 PM

Latest Report: Jul 29, 2015 at 7:00 PM


Visibility: N/A

Pressure: 30.09 "Hg

Humidity: 34%

Dew point: 51 °F

Location of CoquitlamLocation

Historic Weather in Coquitlam — Graph

°F

Coquitlam temperature yesterday

Maximum temperature yesterday: 79 °F (at 6:00 PM)
Minimum temperature yesterday: 54 °F (at 6:00 AM)
Average temperature yesterday: 67 °F

Past Weeks' High & Low Weather Summary

 TemperatureHumidityPressure
High91 °F (Jul 18, 5:00 PM)97% (Jul 24, 10:00 PM)30.29 "Hg (Jul 24, 10:00 PM)
Low53 °F (Jul 23, 5:00 AM)20% (Jul 29, 5:00 PM)29.86 "Hg (Jul 22, 8:00 PM)
Average67 °F66%30.03 "Hg
* Reported Jul 14 6:00 PM — Jul 29 6:00 PM, Coquitlam, Weather by CustomWeather, © 2015

Note: Actual official high and low records may vary slightly from our data, if they occured in-between our weather recording intervals... More about our weather records

Advertising

Coquitlam weather history for previous 24 hours

 ConditionsComfort  
Time TempWeatherWind HumidityBarometerVisibility
6:00 PM
Wed, Jul 29
87 °FPleasantly warm.6 mph23%30.10 "HgN/A
5:00 PM88 °FHot.5 mph20%30.12 "HgN/A
4:00 PM87 °FPleasantly warm.6 mph27%30.14 "HgN/A
3:00 PM85 °FPleasantly warm.7 mph36%30.15 "HgN/A
2:00 PM82 °FPleasantly warm.2 mph38%30.16 "HgN/A
1:00 PM80 °FWarm.3 mph46%30.17 "HgN/A
12:00 PM78 °FWarm.2 mph47%30.18 "HgN/A
11:00 AM74 °FMild.3 mph48%30.20 "HgN/A
10:00 AM71 °FMild.1 mph59%30.21 "HgN/A
9:00 AM65 °FMild.2 mph72%30.22 "HgN/A
8:00 AM63 °FMild.1 mph81%30.22 "HgN/A
7:00 AM60 °FCool.1 mph89%30.21 "HgN/A
6:00 AM58 °FCool.No wind92%30.20 "HgN/A
5:00 AM57 °FCool.No wind85%30.20 "HgN/A
4:00 AM58 °FCool.No wind92%30.19 "HgN/A
3:00 AM58 °FCool.No wind91%30.19 "HgN/A
2:00 AM59 °FCool.No wind88%30.19 "HgN/A
1:00 AM61 °FCool.No wind85%30.19 "HgN/A
12:00 AM62 °FCool.No wind79%30.19 "HgN/A
11:00 PM
Tue, Jul 28
64 °FMild.1 mph77%30.19 "HgN/A
10:00 PM69 °FMild.1 mph62%30.19 "HgN/A
9:00 PM71 °FMild.2 mph53%30.18 "HgN/A
8:00 PM72 °FMild.5 mph51%30.18 "HgN/A
7:00 PM77 °FWarm.5 mph44%30.18 "HgN/A
Weather by CustomWeather, © 2015

See weather overviewHow to use our weather pages